Le nostre stazioni meteo in Italia

Pubblicità
Il mio iltempo24.it
Trevico, Italia (16263): Temperatura & dewpoint: 15.04.2019 09:00:00 - 21.04.2019 09:00:00 (CEST)Trevico, Italia (16263): velocità del vento: 15.04.2019 09:00:00 - 21.04.2019 09:00:00 (CEST)Trevico, Italia (16263): direzione del vento: 15.04.2019 09:00:00 - 21.04.2019 09:00:00 (CEST)Trevico, Italia (16263): visibility: 15.04.2019 09:00:00 - 21.04.2019 09:00:00 (CEST)
Data & Tempo tt [°C] td [°C] ff [km/h] ff [kn] dd vv [km]
21.04.2019 09:00:00 - - - - - -
21.04.2019 08:00:00 8,4 0,1 29 16 ESE 30
21.04.2019 07:00:00 - - - - - -
21.04.2019 06:00:00 8,0 1,0 34 18 ESE 10
21.04.2019 05:00:00 8,0 0,7 18 10 N 15
21.04.2019 04:00:00 - - - - - -
21.04.2019 03:00:00 7,0 3,0 22 12 E 10
21.04.2019 02:00:00 7,2 2,9 21 11 E 15
21.04.2019 01:00:00 - - - - - -
21.04.2019 00:00:00 - - - - - -
20.04.2019 23:00:00 7,8 3,5 28 15 E 15
20.04.2019 22:00:00 8,0 4,0 29 16 E 10
20.04.2019 21:00:00 8,0 4,0 24 13 E 10
20.04.2019 20:00:00 10,0 4,8 18 10 ENE 30
20.04.2019 19:00:00 - - - - - -
20.04.2019 18:00:00 - - - - - -
20.04.2019 17:00:00 12,0 3,5 21 11 ENE 30
20.04.2019 16:00:00 - - - - - -
20.04.2019 15:00:00 - - - - - -
20.04.2019 14:00:00 12,6 1,9 13 7 N 30
20.04.2019 13:00:00 - - - - - -
20.04.2019 12:00:00 - - - - - -
20.04.2019 11:00:00 - - - - - -
20.04.2019 10:00:00 - - - - - -
20.04.2019 09:00:00 - - - - - -
20.04.2019 08:00:00 9,4 -2,2 15 8 N 30
20.04.2019 07:00:00 - - - - - -
20.04.2019 06:00:00 - - - - - -
20.04.2019 05:00:00 6,6 -2,8 21 11 N 18
20.04.2019 04:00:00 - - - - - -
20.04.2019 03:00:00 - - - - - -
20.04.2019 02:00:00 7,4 -4,1 15 8 NNE 18
20.04.2019 01:00:00 - - - - - -
20.04.2019 00:00:00 - - - - - -
19.04.2019 23:00:00 8,0 -3,8 15 8 NE 18
19.04.2019 22:00:00 - - - - - -
19.04.2019 21:00:00 - - - - - -
19.04.2019 20:00:00 9,0 1,7 13 7 N 30
19.04.2019 19:00:00 - - - - - -
19.04.2019 18:00:00 - - - - - -
19.04.2019 17:00:00 12,2 2,1 9 5 NNE 30
19.04.2019 16:00:00 - - - - - -
19.04.2019 15:00:00 - - - - - -
19.04.2019 14:00:00 11,0 1,5 11 6 ENE 30
19.04.2019 13:00:00 - - - - - -
19.04.2019 12:00:00 - - - - - -
19.04.2019 11:00:00 11,4 0,8 11 6 ENE 25
19.04.2019 10:00:00 - - - - - -
19.04.2019 09:00:00 - - - - - -
19.04.2019 08:00:00 8,2 0,9 0 0 N 25
19.04.2019 07:00:00 - - - - - -
19.04.2019 06:00:00 - - - - - -
19.04.2019 05:00:00 6,2 1,3 0 0 N 25
19.04.2019 04:00:00 6,0 1,0 - - - 10
19.04.2019 03:00:00 7,0 1,0 - - - 10
19.04.2019 02:00:00 6,4 0,1 0 0 N 25
19.04.2019 01:00:00 - - - - - -
19.04.2019 00:00:00 6,0 0,0 - - - 10
18.04.2019 23:00:00 6,4 0,3 0 0 N 25
18.04.2019 22:00:00 7,0 2,0 - - - 10
18.04.2019 21:00:00 7,0 1,0 - - - 10
18.04.2019 20:00:00 7,8 2,3 0 0 N 20
18.04.2019 19:00:00 - - - - - -
18.04.2019 18:00:00 - - - - - -
18.04.2019 17:00:00 10,6 2,4 0 0 N 25
18.04.2019 16:00:00 - - - - - -
18.04.2019 15:00:00 - - - - - -
18.04.2019 14:00:00 10,8 -2,6 11 6 NE 25
18.04.2019 13:00:00 - - - - - -
18.04.2019 12:00:00 - - - - - -
18.04.2019 11:00:00 8,4 -1,7 11 6 N 30
18.04.2019 10:00:00 - - - - - -
18.04.2019 09:00:00 - - - - - -
18.04.2019 08:00:00 5,0 -3,3 11 6 NNO 30
18.04.2019 07:00:00 - - - - - -
18.04.2019 06:00:00 5,0 -3,0 15 8 NO 10
18.04.2019 05:00:00 4,8 -4,7 16 9 NO 12
18.04.2019 04:00:00 5,0 -3,0 16 9 NO 10
18.04.2019 03:00:00 5,0 -3,0 15 8 NO 10
18.04.2019 02:00:00 5,8 -4,1 16 9 NO 12
18.04.2019 01:00:00 6,0 -5,0 15 8 NO 10
18.04.2019 00:00:00 6,0 -4,0 15 8 NO 10
17.04.2019 23:00:00 6,4 -3,0 13 7 NNO 12
17.04.2019 22:00:00 7,0 -2,0 11 6 NNO 10
17.04.2019 21:00:00 7,0 -2,0 11 6 N 10
17.04.2019 20:00:00 8,4 -0,9 5 3 NNO 16
17.04.2019 19:00:00 - - - - - -
17.04.2019 18:00:00 - - - - - -
17.04.2019 17:00:00 9,2 -5,1 13 7 NNO 20
17.04.2019 16:00:00 - - - - - -
17.04.2019 15:00:00 - - - - - -
17.04.2019 14:00:00 8,0 4,0 5 3 N 20
17.04.2019 13:00:00 10,0 5,0 5 3 NNO 10
17.04.2019 12:00:00 - - - - - -
17.04.2019 11:00:00 8,0 3,8 8 4 NO 25
17.04.2019 10:00:00 - - - - - -
17.04.2019 09:00:00 - - - - - -
17.04.2019 08:00:00 5,4 2,2 16 9 O 25
17.04.2019 07:00:00 - - - - - -
17.04.2019 06:00:00 5,0 1,0 15 8 O 10
17.04.2019 05:00:00 5,2 -0,2 16 9 O 20
17.04.2019 04:00:00 - - - - - -
17.04.2019 03:00:00 5,0 0,0 16 9 O 10
17.04.2019 02:00:00 5,0 4,0 13 7 O 15
17.04.2019 01:00:00 - - - - - -
17.04.2019 00:00:00 - - - - - -
16.04.2019 23:00:00 5,8 2,1 13 7 SO 20
16.04.2019 22:00:00 6,0 2,0 15 8 OSO 10
16.04.2019 21:00:00 7,0 4,0 11 6 ONO 10
16.04.2019 20:00:00 7,2 2,7 18 10 ONO 20
16.04.2019 19:00:00 - - - - - -
16.04.2019 18:00:00 - - - - - -
16.04.2019 17:00:00 11,6 -2,2 8 4 O 20
16.04.2019 16:00:00 12,0 -2,0 5 3 - 10
16.04.2019 15:00:00 - - - - - -
16.04.2019 14:00:00 9,6 -1,2 5 3 N 25
16.04.2019 13:00:00 - - - - - -
16.04.2019 12:00:00 - - - - - -
16.04.2019 11:00:00 8,2 -1,3 5 3 NO 30
16.04.2019 10:00:00 - - - - - -
16.04.2019 09:00:00 - - - - - -
16.04.2019 08:00:00 4,8 -1,0 9 5 NNO 25
16.04.2019 07:00:00 - - - - - -
16.04.2019 06:00:00 4,0 -1,0 11 6 NNO 10
16.04.2019 05:00:00 4,0 -0,4 15 8 NNO 15
16.04.2019 04:00:00 4,0 0,0 15 8 NO 10
16.04.2019 03:00:00 4,0 -1,0 16 9 NNO 10
16.04.2019 02:00:00 4,0 -0,4 13 7 NO 15
16.04.2019 01:00:00 4,0 0,0 15 8 NNO 10
16.04.2019 00:00:00 3,0 -1,0 16 9 NNO 10
15.04.2019 23:00:00 3,4 -0,1 18 10 NNO 12
15.04.2019 22:00:00 3,0 1,0 22 12 N 10
15.04.2019 21:00:00 3,0 1,0 21 11 N 10
15.04.2019 20:00:00 4,2 2,2 16 9 N -
15.04.2019 19:00:00 4,0 2,0 18 10 NNO -
15.04.2019 18:00:00 4,0 2,0 18 10 NNO -
15.04.2019 17:00:00 4,0 2,0 18 10 NNE 12
15.04.2019 16:00:00 4,0 2,0 26 14 NNE -
15.04.2019 15:00:00 4,0 2,0 26 14 NE -
15.04.2019 14:00:00 3,8 1,8 22 12 NE -
15.04.2019 13:00:00 4,0 2,0 26 14 NE -
15.04.2019 12:00:00 3,0 1,0 22 12 NE -
15.04.2019 11:00:00 3,4 1,9 24 13 NNE -
15.04.2019 10:00:00 - - - - - -
15.04.2019 09:00:00 - - - - - -

tt = Temperatura
td = dewpoint
ff = velocità del vento
dd = direzione del vento
vv = visibility

Stazioni seguenti

WeatherPro
AMSI
MeteoEarth